Regional Weather Roundup
Issued by NWS

Home | Current Version | Previous Version | Graphics & Text | Print | Product List | Glossary On
Versions: 1 2 3 4 5 6 7 8 9 10 11 12 13 14 15 16 17 18 19 20 21 22 23 24 25 26 27 28 29 30 31 32 33 34 35 36 37 38 39 40 41 42 43 44 45 46 47 48 49 50
000
ASUS43 KBIS 272010
RWRND

NORTH DAKOTA REGIONAL WEATHER ROUNDUP
NATIONAL WEATHER SERVICE BISMARCK ND
300 PM CDT MON JUL 27 2015

NOTE: "FAIR" INDICATES FEW OR NO CLOUDS BELOW 12,000 FEET WITH NO
SIGNIFICANT WEATHER AND/OR OBSTRUCTIONS TO VISIBILITY.


NDZ001>003-009>011-017-272100-
NORTHWEST NORTH DAKOTA

CITY           SKY/WX    TMP DP  RH WIND       PRES   REMARKS
WILLISTON      MOSUNNY   91  56  30 SE14G22   29.67F
MINOT          SUNNY     88  66  48 E21G31    29.68F HX  90
MINOT AFB      SUNNY     87  69  53 SE25      29.67F HX  91
$$

NDZ018>021-031>035-040>046-272100-
SOUTHWEST NORTH DAKOTA

CITY           SKY/WX    TMP DP  RH WIND       PRES   REMARKS
BISMARCK       MOSUNNY   91  71  51 S23G29    29.71F HX  97
DICKINSON      SUNNY     89  65  44 SE17G33   29.66F HX  91
GARRISON         N/A     85  72  65 SE16G22   29.68F HX  91
HETTINGER ARPT MOSUNNY   88  63  43 SE20G29   29.71F
$$

NDZ004>008-012>016-024-026-027-054-272100-
NORTHEAST NORTH DAKOTA

CITY           SKY/WX    TMP DP  RH WIND       PRES   REMARKS
GRAND FORKS    PTSUNNY   84  71  65 SE13      29.81F
GRND FRKS AFB  MOSUNNY   83  71  65 S10G20    29.82F
DEVILS LAKE    SUNNY     84  66  54 SE20G25   29.79S
$$

NDZ022-023-025-028>030-036>039-047>053-272100-
SOUTHEAST NORTH DAKOTA

CITY           SKY/WX    TMP DP  RH WIND       PRES   REMARKS
FARGO          PTSUNNY   87  72  60 SE14      29.82F HX  93
JAMESTOWN      MOSUNNY   86  73  65 S13G25    29.79F HX  93
$$



USA.gov is the U.S. government's official web portal to all federal, state and local government web resources and services.